Oujda, Morocco

12:22 PM WET on June 24, 2017 (GMT +0000)
Oujda

Weather History for GMFO - September, 2012

Change the Weather History Date:

Sunday, September 23, 2012

  Actual Average Record
Temperature  
Mean Temperature 86 °F -  
Max Temperature 105 °F 78 °F 105 °F (2012)
Min Temperature 67 °F 54 °F 53 °F (1996)
Cooling Degree Days 21    
Growing Degree Days 36 (Base 50)    
Moisture  
Dew Point 52 °F    
Average Humidity 36    
Maximum Humidity 73    
Minimum Humidity 6    
Precipitation  
Precipitation 0.00 in 0.04 in - ()
Sea Level Pressure  
Sea Level Pressure 30.00 in    
Wind  
Wind Speed 7 mph ()    
Max Wind Speed 22 mph    
Max Gust Speed 28 mph    
Visibility 6.7 miles    
Events      
Averages and records for this station are not official NWS values.
T = Trace of Precipitation, MM = Missing Value Source: Averaged Metar Reports

Daily Weather History Graph

Daily Weather History Graph

Search for Another Location

Airport or City:

Trip Planner

Search our weather history database for the weather conditions in past years. The results will help you decide how hot, cold, wet, or windy it might be!

Date:

Astronomy

Sep. 23, 2012 Rise Set
Actual Time 6:56 AM WEST 7:02 PM WEST
Civil Twilight 6:31 AM WEST 7:27 PM WEST
Nautical Twilight 6:02 AM WEST 7:57 PM WEST
Astronomical Twilight 5:32 AM WEST 8:26 PM WEST
Moon 2:39 PM WEST (9/23) 12:07 AM WEST (9/23)
Length of Visible Light 12h 56m
Length of Day
12h 06m
First Quarter, 57% of the Moon is Illuminated
Sep 23
First Quarter
Sep 30
Full
Oct 8
Last Quarter
Oct 15
New
Oct 22
First Quarter

Hourly Weather History & Observations

Time (WEST) Temp. Heat Index Dew Point Humidity Pressure Visibility Wind Dir Wind Speed Gust Speed Precip Events Conditions
12:00 AM 71.6 °F - 60.8 °F 69% 30.04 in 6.2 mi SSW 3.5 mph - N/A   Partly Cloudy
2:00 AM 71.6 °F - 60.8 °F 69% 30.04 in 6.2 mi WSW 6.9 mph - N/A   Partly Cloudy
3:00 AM 68.0 °F - 59.0 °F 73% 30.04 in 6.2 mi SSW 3.5 mph - N/A   Partly Cloudy
4:00 AM 68 °F - 58 °F 63% 29.97 in 9 mi SSW 6.9 mph - -   Scattered Clouds
4:00 AM 68.0 °F - 59.0 °F 73% 30.01 in 6.2 mi SSW 6.9 mph - N/A   Partly Cloudy
5:00 AM 71.6 °F - 50.0 °F 46% 30.01 in 6.2 mi WSW 4.6 mph - N/A   Partly Cloudy
6:00 AM 73.4 °F - 46.4 °F 38% 30.04 in 6.2 mi South 5.8 mph - N/A   Partly Cloudy
7:00 AM 79 °F - 51 °F 26% 29.98 in 9 mi South 6.9 mph - -   Scattered Clouds
7:00 AM 78.8 °F - 50.0 °F 36% 30.04 in 6.2 mi SW 9.2 mph - N/A   Partly Cloudy
9:00 AM 87.8 °F - 50.0 °F 27% 30.04 in 6.2 mi SSW 3.5 mph - N/A   Partly Cloudy
10:00 AM 94 °F - 48 °F 12% 29.94 in 9 mi SSW 11.5 mph - -   Scattered Clouds
10:00 AM 93.2 °F - 48.2 °F 21% 30.04 in 6.2 mi SSW 11.5 mph - N/A   Partly Cloudy
1:00 PM 104 °F - 41 °F 6% 29.86 in 9 mi South 11.5 mph - -   Scattered Clouds
1:00 PM 104.0 °F - 41.0 °F 12% 30.01 in 6.2 mi South 11.5 mph - N/A   Partly Cloudy
2:00 PM 104.0 °F - 39.2 °F 11% 29.98 in 6.2 mi SSW 11.5 mph - N/A   Partly Cloudy
3:00 PM 102.2 °F 103.6 °F 60.8 °F 26% 29.95 in 6.2 mi North 13.8 mph 27.6 mph N/A   Partly Cloudy
4:00 PM 86 °F - 67 °F 43% 29.88 in 9 mi North 21.9 mph - -   Scattered Clouds
4:00 PM 86.0 °F 88.2 °F 66.2 °F 51% 29.98 in 6.2 mi North 21.9 mph - N/A   Scattered Clouds
6:00 PM 87.8 °F - 51.8 °F 29% 30.01 in 6.2 mi North 16.1 mph - N/A   Scattered Clouds
7:00 PM 82 °F - 48 °F 20% 29.95 in 6 mi NNE 3.5 mph - -   Scattered Clouds
7:00 PM 82.4 °F - 48.2 °F 30% 30.04 in 6.2 mi NNE 3.5 mph - N/A   Partly Cloudy
8:00 PM 80.6 °F - 44.6 °F 28% 30.04 in 6.2 mi ESE 5.8 mph - N/A   Partly Cloudy
9:00 PM 80.6 °F - 50.0 °F 34% 30.06 in 6.2 mi Calm Calm - N/A   Partly Cloudy
10:00 PM 78 °F - 48 °F 24% 30.02 in 6 mi Calm Calm - -   Scattered Clouds
10:00 PM 78.8 °F - 48.2 °F 34% 30.09 in 6.2 mi Calm Calm - N/A   Scattered Clouds